ARIRANG-2 (KOMPSAT-2)

Last updated on Mon Sep 07 2026 00:02:44 GMT+0000 (Coordinated Universal Time)

1 29268U 06031A 26249.59417650 .00000050 00000+0 17760-4 0 9996 2 29268 97.8343 70.1234 0014433 169.7619 283.4400 14.64700351 73398
UTC large
Height (km)
Speed (km/s)
/
Latitude / Longitude
Inclination (degrees)
Orbital Period (minutes)
Azimuth
Elevation
Range (km)
Doppler Factor

Next 0 passes for location: London (51.5072 / 0.1276)

No passes found over London.
ARIRANG-2 (KOMPSAT-2)